Location: Alpine
(43.1636°N, 111.0180°W)
Time: 05:44:19
(UTC+00:00)

Tiros 1 despin weight - Pass Details

Date: 02 June 2022
Orbit: 591 x 639 km, 48.2° (Epoch: 30 June)

Event Time Altitude Azimuth Distance (km) Brightness Sun altitude
Rises 04:52:31 0° 293° (WNW) 2,853 ? -16.2°
Reaches altitude 10° 04:54:54 10° 286° (WNW) 1,940 ? -16.4°
Maximum altitude 04:59:05 41° 216° (SW) 862 ? -16.9°
Enters shadow 05:00:31 31° 172° (S) 1,045 ? -17.0°
Drops below altitude 10° 05:03:13 10° 146° (SE) 1,914 - -17.3°
Sets 05:05:34 0° 139° (SE) 2,809 - -17.5°
